Location: Newark
(45.9167°N, 11.2667°E)
Time: 05:45:34
(UTC+00:00)

Envisat - Visible Passes

Search period start: 23 August 2019 00:00
Search period end: 02 September 2019 00:00
Orbit: 764 x 766 km, 98.1° (Epoch: 22 August)

Date Brightness Start Highest point End Pass type
(mag) Time Alt. Az. Time Alt. Az. Time Alt. Az.
25 Aug 5.9 18:51:51 10° SW 18:54:52 16° W 18:57:52 10° NW visible
28 Aug 5.8 18:39:52 10° SW 18:43:28 19° W 18:47:07 10° NW visible
30 Aug 6.3 19:07:52 10° WSW 19:09:19 11° W 19:10:47 10° WNW visible
31 Aug 5.6 18:28:02 10° SSW 18:32:07 24° W 18:36:14 10° NW visible
